Flag for Egypt Weather past 2 weeks in Port Said, Egypt

Now
77 °F

Sunny.


Feels Like: 79 °F
Forecast: 78 / 86 °F
Wind: 7 mph from North

Location: Port Said Airport

Current Time: Jul 23, 2014 at 6:41:18 AM

Latest Report: Jul 23, 2014 at 6:00 AM


Visibility: 10 mi

Pressure: 29.80 "Hg

Humidity: 74%

Dew point: 68 °F

Location of Port SaidLocation

Historic Weather in Port Said — Graph

°F

Port Said temperature yesterday

Maximum temperature yesterday: 86 °F (at 12:00 PM)
Minimum temperature yesterday: 77 °F (at 4:00 AM)
Average temperature yesterday: 81 °F

Past Weeks' High & Low Weather Summary

 TemperatureHumidityPressure
High91 °F (Jul 10, 12:00 PM)89% (Jul 10, 10:00 PM)29.92 "Hg (Jul 10, 10:00 PM)
Low75 °F (Jul 9, 5:00 AM)48% (Jul 12, 9:00 PM)29.62 "Hg (Jul 8, 3:00 PM)
Average81 °F74%29.81 "Hg
* Reported Jul 8 5:00 AM — Jul 23 5:00 AM, Port Said, Weather by CustomWeather, © 2014

Note: Actual official high and low records may vary slightly from our data, if they occured in-between our weather recording intervals... More about our weather records

Advertising

Port Said weather history for previous 24 hours

 ConditionsComfort  
Time TempWeatherWind HumidityBarometerVisibility
5:00 AM
Jul 23
77 °FClear.8 mph89%29.80 "Hg10 mi
4:00 AM77 °FClear.7 mph83%29.77 "Hg10 mi
3:00 AM79 °FClear.9 mph84%29.77 "Hg10 mi
2:00 AM79 °FClear.10 mph84%29.80 "Hg10 mi
1:00 AM79 °FClear.12 mph84%29.80 "Hg10 mi
7:00 PM
Jul 22
81 °FClear.15 mph84%29.77 "Hg10 mi
6:00 PM82 °FSunny.14 mph79%29.77 "Hg10 mi
5:00 PM82 °FSunny.14 mph79%29.77 "Hg10 mi
4:00 PM84 °FSunny.12 mph74%29.77 "Hg10 mi
3:00 PM84 °FSunny.10 mph74%29.77 "Hg10 mi
2:00 PM86 °FSunny.10 mph70%29.77 "Hg10 mi
1:00 PM86 °FSunny.7 mph59%29.80 "Hg10 mi
12:00 PM86 °FSunny.8 mph59%29.80 "Hg10 mi
11:00 AM84 °FSunny.2 mph62%29.80 "Hg10 mi
10:00 AM81 °FSunny.9 mph70%29.80 "Hg10 mi
9:00 AM79 °FScattered clouds.12 mph79%29.80 "HgN/A
8:00 AM79 °FSunny.12 mph79%29.80 "Hg10 mi
7:00 AM79 °FSunny.7 mph79%29.77 "Hg10 mi
6:00 AM77 °FSunny.5 mph83%29.77 "Hg10 mi
Weather by CustomWeather, © 2014

See weather overviewHow to use our weather pages